Find Starlink 34297

NORAD ID: 64261 Int'l Des: 2025-120 Owner: SPXS Country: US Constellation: starlink operational
LEOCIRCULAR

現在のビュー

3D地球を読み込み中...

About Starlink 34297

Starlink 34297 (NORAD 64261) is a starlink constellation satellite (v2 mini) launched Jun 4, 2025 by SPXS of US. It operates in LEO, CIRCULAR orbit with a mass of 575.00 kg.

次回通過

Passes for default location (London). Set your location on the main map for personalized predictions.

高度履歴

Loading altitude history...

軌道要素

1 64261U 25120F 26264.34612113 .00017032 00000-0 51392-3 0 9996
2 64261 53.1567 282.0979 0001607 82.5729 277.5456 15.34409775 73845
Epoch: Sep 21, 2026 • Age: 12 hours

現在のステータス

高度 468.9 km
遠地点 / 近地点 N/A
速度 7.63 km/s
衛星直下点 -20.49°S, 173.11°E
打ち上げ日 Jun 4, 2025
運用期間 1.2 years
タイプ internet

技術仕様

分類 Payload
質量 575.00 kg
乾燥質量 530.00 kg
長さ 0.30 m
スパン 29.00 m
形状 ? Box + pan
製造者 SPXS
バスタイプ Starlink V2MO
フェーズステータス In Orbit
所有者/国 SPXS/US

Most Searched